Wind_Speed
36 36 36 36 36 37 39 40 41 42 42 43 45 47 49 50 52 53 53 54 53 52 51 50 50 49 48 48 46 44 43 42 41 40 40 40 39 39
36 36 36 36 37 38 39 41 42 43 44 44 46 48 50 52 53 53 53 52 51 49 49 48 48 47 46 44 43 41 40 39 39 39 38 38 37 38
36 37 37 37 38 39 40 41 43 44 45 46 48 50 51 52 52 52 51 49 48 48 47 46 46 45 44 42 41 39 38 37 37 36 36 35 36 36
37 37 37 37 39 40 41 42 43 44 46 47 49 50 51 50 50 50 49 47 47 46 46 46 45 44 42 40 39 38 36 36 35 33 33 33 33 34
37 37 37 38 40 41 41 42 43 45 47 48 49 49 49 49 48 47 46 46 46 46 45 44 43 41 39 38 37 36 36 35 34 33 32 32 32 32
37 37 38 39 40 41 42 43 44 45 47 48 48 48 48 47 46 45 44 44 44 44 43 42 41 39 38 36 36 35 35 34 33 32 32 31 31 31
37 37 38 40 41 42 43 43 44 46 47 48 47 46 46 45 44 43 43 42 42 42 41 41 40 38 36 35 34 33 32 32 32 31 31 31 31 31
37 38 39 40 41 42 43 44 45 45 46 46 45 44 43 42 42 42 42 42 41 40 39 38 37 35 34 33 33 32 32 31 31 31 31 31 30 30
38 39 39 40 41 41 42 43 44 44 44 44 43 43 42 41 41 42 42 41 40 39 37 35 33 33 32 32 32 31 31 30 30 30 30 29 28 28
38 39 39 40 40 41 41 41 42 43 43 42 42 42 41 41 42 42 41 40 38 38 36 33 31 30 30 30 30 29 29 28 28 27 27 26 25 24
38 39 39 39 39 40 40 41 41 41 41 41 41 41 41 41 41 40 39 37 35 34 33 30 28 27 27 28 28 28 28 26 25 25 25 23 22 21
37 38 38 38 39 39 40 40 39 39 40 40 39 39 39 39 38 37 36 34 32 30 28 27 26 26 26 26 27 27 25 24 24 24 22 21 19 18
36 37 37 37 38 39 39 38 38 38 38 38 37 36 35 35 34 33 32 31 29 27 26 25 26 26 25 24 24 24 24 23 22 21 20 19 18 16
36 36 36 36 37 37 37 36 37 37 36 34 33 32 31 31 31 30 30 28 27 26 25 25 25 25 25 24 23 22 22 21 20 20 20 19 17 14
35 35 35 35 35 35 35 35 35 33 32 31 29 29 29 29 29 28 27 26 25 24 24 24 24 23 23 22 21 20 20 19 19 19 19 17 14 12
33 33 34 34 34 33 32 32 31 29 28 27 26 27 27 28 27 26 25 24 23 22 22 22 22 22 21 21 20 20 20 19 18 17 16 15 12 10
33 33 32 32 31 30 29 29 27 26 26 25 25 25 26 26 26 25 23 21 21 20 20 20 19 20 20 20 20 20 19 18 17 16 16 14 11 9
32 31 30 29 28 27 27 26 25 24 24 24 24 25 25 24 23 22 20 20 19 19 18 18 18 19 19 20 19 19 19 18 17 15 13 11 8 7
29 28 27 26 26 26 25 24 23 22 22 23 23 23 23 22 21 19 19 18 17 17 17 17 17 18 17 17 18 19 19 18 16 14 11 8 6 5
26 25 25 24 24 24 24 22 21 21 22 22 22 22 21 20 19 18 17 17 16 16 16 17 17 16 16 17 17 18 18 17 15 11 8 6 5 4
24 24 23 23 23 23 22 21 20 20 21 21 21 21 20 18 17 16 17 16 15 15 15 16 15 15 15 16 16 17 17 16 14 10 8 6 4 4
23 22 22 22 22 21 20 19 19 19 19 19 19 18 17 16 16 16 16 16 15 15 15 15 14 13 14 15 15 16 16 14 13 10 8 6 4 3
21 21 21 20 20 19 18 18 18 18 18 17 17 16 15 15 15 16 16 16 16 15 15 14 13 13 13 14 15 15 13 12 11 9 8 7 5 4
Wind_Direction
279 281 284 286 287 289 291 293 294 296 297 298 299 300 302 302 302 302 303 303 303 302 302 302 301 300 300 299 298 296 294 293 292 291 288 286 284 283
280 282 284 286 288 290 292 294 296 297 298 299 300 302 303 303 303 303 304 304 303 303 303 304 303 303 302 300 299 298 296 295 294 292 289 287 286 284
280 282 284 286 288 290 292 294 296 298 299 301 302 303 304 304 304 305 304 304 304 304 304 305 305 305 303 301 299 298 297 296 296 294 290 289 288 287
281 282 284 286 289 291 293 295 297 299 301 302 303 304 304 305 305 305 304 304 305 305 305 306 306 306 304 301 299 298 297 297 295 294 293 291 290 289
281 282 284 287 289 291 293 296 298 300 301 303 304 305 305 305 305 304 304 305 306 306 306 306 306 306 305 302 300 298 298 297 296 294 294 293 292 291
281 282 285 287 289 291 294 296 298 300 302 304 305 305 306 305 304 304 304 305 306 306 307 306 306 306 305 303 300 299 298 297 297 295 294 293 292 292
281 283 285 288 289 292 294 296 298 301 303 304 305 306 306 306 305 305 305 305 307 307 306 306 306 306 305 303 300 299 298 298 299 298 295 293 292 292
281 283 286 288 291 293 295 298 299 301 303 305 306 306 307 306 305 306 306 307 307 307 306 306 306 305 304 304 303 303 301 300 300 299 298 295 293 291
281 283 286 288 291 293 296 298 300 302 304 306 306 306 306 306 306 307 307 308 308 308 308 307 307 307 306 306 306 305 303 303 302 302 301 298 295 294
282 284 286 289 291 294 296 298 300 302 304 305 306 306 307 307 308 309 309 309 309 309 309 308 307 307 307 308 309 308 307 306 306 305 304 302 299 297
282 284 287 290 291 294 296 298 300 301 303 305 306 307 307 309 309 310 310 310 310 310 310 310 309 309 311 311 311 311 310 310 310 310 306 304 301 299
282 285 288 290 292 294 296 298 299 301 303 305 305 307 309 310 311 311 312 311 312 312 311 311 311 311 312 312 312 313 314 314 314 314 311 308 305 301
281 284 288 290 292 295 296 298 299 301 303 304 305 307 310 312 313 314 314 314 315 315 314 314 315 315 316 317 316 316 317 316 316 317 315 312 308 304
282 284 287 290 293 295 296 298 299 301 303 304 305 308 311 313 314 315 316 316 316 317 316 316 317 318 318 319 319 317 318 319 317 316 316 314 309 304
283 285 288 290 293 294 296 298 300 301 302 304 305 308 311 314 315 316 316 316 317 318 318 319 320 321 321 322 322 322 322 322 320 318 317 314 309 303
282 285 288 290 292 294 295 297 300 301 303 304 305 308 312 315 316 316 316 317 317 318 319 320 321 324 326 327 327 326 326 326 324 320 318 317 311 304
281 284 287 289 291 292 294 298 299 300 303 305 306 309 312 315 316 316 316 317 318 320 321 323 326 328 329 330 330 330 329 329 327 322 318 315 310 307
281 282 284 287 289 291 295 297 298 300 303 306 307 310 314 315 316 316 316 317 318 320 322 324 327 329 332 332 333 334 333 332 330 324 321 318 312 309
279 280 283 284 287 291 294 295 296 299 303 306 308 310 313 314 315 315 317 318 319 320 322 325 328 332 334 336 337 338 337 336 335 330 327 325 321 324
276 278 282 284 287 290 292 293 294 297 301 305 307 309 311 312 312 314 317 319 319 321 324 326 328 331 334 339 341 341 341 342 343 340 334 333 334 334
276 279 282 284 287 288 289 290 293 296 300 305 307 308 309 310 311 312 315 316 319 321 322 324 327 330 335 339 343 345 346 346 347 349 346 342 341 335
277 279 282 285 285 286 287 289 292 296 300 304 308 309 309 309 310 312 315 315 316 319 321 323 325 331 336 341 346 349 350 350 351 354 357 359 359 1
274 277 280 282 283 286 286 288 291 294 298 303 308 310 310 309 311 312 314 315 315 317 319 321 323 328 334 340 343 345 347 349 351 353 357 4 15 26
Height
5723 5722 5720 5718 5716 5713 5710 5707 5705 5702 5700 5695 5689 5683 5677 5671 5664 5658 5652 5645 5639 5632 5626 5620 5614 5608 5602 5597 5592 5588 5584 5580 5577 5573 5570 5567 5565 5563
5714 5713 5711 5709 5707 5704 5701 5698 5694 5691 5688 5684 5678 5672 5665 5659 5652 5645 5639 5632 5626 5620 5614 5608 5602 5595 5590 5585 5580 5576 5572 5569 5566 5562 5559 5556 5554 5552
5705 5704 5702 5700 5698 5695 5691 5688 5684 5680 5677 5673 5667 5661 5654 5647 5640 5633 5627 5621 5614 5608 5603 5597 5590 5584 5578 5574 5569 5566 5562 5559 5555 5552 5548 5546 5543 5541
5696 5695 5693 5690 5688 5685 5682 5678 5674 5670 5665 5662 5656 5649 5642 5635 5629 5622 5616 5609 5604 5598 5592 5586 5580 5574 5568 5564 5559 5556 5552 5549 5546 5542 5539 5536 5534 5531
5687 5685 5683 5681 5678 5675 5672 5668 5664 5659 5654 5649 5644 5638 5631 5624 5618 5612 5605 5599 5593 5587 5582 5576 5570 5564 5559 5554 5550 5547 5543 5540 5536 5533 5530 5527 5524 5522
5678 5676 5674 5671 5669 5666 5662 5658 5654 5649 5644 5638 5633 5627 5620 5613 5607 5602 5597 5590 5584 5578 5572 5566 5561 5555 5550 5546 5542 5538 5534 5531 5527 5524 5521 5518 5516 5513
5668 5666 5664 5662 5659 5655 5652 5648 5644 5639 5633 5628 5622 5616 5610 5603 5597 5592 5587 5581 5575 5569 5563 5558 5552 5547 5542 5537 5533 5529 5525 5522 5519 5516 5512 5509 5506 5503
5659 5657 5655 5652 5649 5645 5641 5637 5633 5628 5623 5617 5611 5605 5600 5594 5588 5582 5577 5572 5567 5561 5555 5550 5544 5539 5534 5529 5525 5521 5517 5514 5511 5507 5504 5500 5497 5494
5649 5647 5645 5642 5639 5636 5632 5627 5622 5617 5612 5607 5601 5595 5590 5584 5579 5573 5567 5561 5556 5551 5546 5541 5536 5531 5526 5522 5517 5513 5510 5506 5502 5499 5495 5491 5488 5485
5639 5638 5635 5632 5629 5626 5622 5618 5613 5608 5603 5597 5592 5586 5580 5574 5569 5563 5558 5552 5547 5541 5537 5533 5528 5524 5519 5515 5510 5506 5503 5499 5495 5491 5487 5484 5481 5478
5629 5627 5625 5623 5619 5616 5613 5609 5604 5599 5593 5587 5582 5576 5571 5565 5559 5554 5549 5544 5539 5534 5529 5525 5522 5518 5514 5509 5504 5500 5496 5492 5488 5484 5480 5477 5474 5472
5620 5618 5615 5613 5609 5606 5602 5599 5595 5590 5585 5580 5574 5568 5562 5557 5551 5545 5540 5535 5531 5527 5523 5519 5515 5511 5509 5504 5499 5494 5490 5486 5482 5478 5475 5472 5469 5466
5610 5608 5606 5603 5600 5597 5593 5589 5585 5581 5576 5571 5566 5561 5555 5550 5544 5539 5533 5529 5524 5521 5517 5513 5509 5505 5501 5498 5494 5489 5485 5481 5477 5473 5470 5467 5464 5461
5601 5599 5597 5594 5591 5588 5584 5580 5576 5572 5568 5563 5559 5554 5549 5544 5538 5533 5528 5523 5519 5515 5511 5508 5504 5500 5496 5493 5489 5485 5480 5476 5473 5469 5466 5462 5460 5457
5591 5590 5588 5585 5582 5579 5575 5572 5568 5564 5560 5556 5552 5547 5543 5538 5533 5528 5523 5519 5514 5510 5507 5503 5499 5495 5491 5488 5484 5480 5477 5473 5469 5465 5462 5459 5456 5453
5582 5581 5578 5576 5573 5570 5567 5564 5560 5556 5553 5549 5546 5542 5537 5533 5528 5524 5519 5515 5511 5507 5503 5499 5495 5491 5487 5483 5480 5476 5472 5469 5465 5462 5458 5455 5453 5451
5574 5572 5570 5568 5565 5562 5559 5556 5553 5550 5547 5543 5540 5536 5532 5528 5523 5519 5515 5511 5507 5504 5500 5496 5492 5488 5484 5481 5477 5473 5469 5466 5462 5458 5455 5452 5450 5448
5565 5564 5562 5560 5558 5555 5553 5550 5547 5544 5541 5538 5534 5531 5527 5523 5519 5515 5511 5508 5504 5500 5497 5493 5490 5486 5482 5477 5474 5471 5467 5463 5459 5455 5452 5450 5448 5446
5556 5555 5554 5552 5550 5548 5546 5543 5541 5538 5535 5533 5529 5526 5522 5519 5515 5512 5508 5505 5501 5498 5495 5491 5488 5484 5481 5477 5472 5468 5464 5460 5456 5452 5449 5447 5446 5445
5549 5548 5547 5545 5544 5542 5539 5537 5535 5533 5530 5527 5524 5521 5518 5515 5511 5508 5505 5502 5499 5495 5492 5489 5485 5482 5478 5475 5471 5467 5462 5458 5454 5451 5448 5447 5445 5444
5542 5541 5540 5539 5537 5535 5533 5531 5530 5527 5525 5523 5520 5517 5514 5511 5508 5505 5502 5499 5496 5493 5490 5487 5483 5480 5477 5473 5470 5466 5461 5457 5454 5451 5449 5447 5446 5444
5535 5535 5533 5532 5530 5529 5527 5526 5524 5522 5520 5518 5515 5512 5510 5507 5505 5502 5499 5496 5493 5490 5487 5485 5482 5479 5475 5472 5469 5465 5461 5457 5454 5451 5449 5448 5446 5444
5529 5528 5527 5526 5525 5523 5522 5521 5519 5517 5516 5514 5511 5509 5506 5504 5502 5499 5497 5494 5491 5488 5485 5483 5480 5477 5474 5471 5468 5464 5461 5458 5455 5452 5450 5448 5446 5444